User: anonymous   Login
Location: Sperry Observatory
(40.6664°N, 74.3236°W)
Time: 23:48:10
(UTC-04:00)
Language:

UOSAT-12 - Orbit

View from above orbital plane
View from above orbital plane
View from above satellite
View from above satellite

Ground track
Ground track

The orbit data is extracted from the following two-line orbital elements,

1 25693U 99021A   14295.40283390  .00000966  00000-0  14355-3 0  6399
2 25693 064.5572 230.6057 0049802 271.8264 224.5040 14.80092564836746
Epoch (UTC): 22 October 2014 09:40:04
Eccentricity: 0.0049802
inclination: 64.5572°
perigee height: 594 km
apogee height: 664 km
right ascension of ascending node: 230.6057°
argument of perigee: 271.8264°
revolutions per day: 14.80092564
mean anomaly at epoch: 224.5040°
orbit number at epoch: 83674

The dashed part of the orbit path shows where the satellite is in the earth's shadow,  

DLR